Location: Vihti�l�
(61.3833°N, 23.0667°E)
Time: 10:06:08
(UTC+00:00)

Envisat - Visible Passes

Search period start: 27 February 2021 00:00
Search period end: 09 March 2021 00:00
Orbit: 764 x 766 km, 98.1° (Epoch: 26 February)

Date Brightness Start Highest point End Pass type
(mag) Time Alt. Az. Time Alt. Az. Time Alt. Az.
27 Feb 6.1 02:27:08 10° NE 02:29:25 13° ENE 02:31:42 10° ESE visible
27 Feb 4.0 04:04:42 10° NNE 04:09:41 51° E 04:14:39 10° S visible
27 Feb 6.4 17:13:19 10° W 17:15:18 12° WNW 17:17:17 10° NW visible
28 Feb 5.0 03:28:03 10° NNE 03:32:34 31° E 03:37:03 10° SSE visible
28 Feb 6.0 16:34:04 10° SW 16:37:51 21° W 16:41:38 10° NW visible
01 Mar 5.8 02:51:42 10° NE 02:55:16 19° E 02:58:48 10° SE visible
01 Mar 3.3 04:30:04 10° NNE 04:35:12 74° ESE 04:40:17 10° SSW visible
02 Mar 6.3 02:16:31 10° ENE 02:17:46 11° ENE 02:19:02 10° E visible
02 Mar 4.3 03:53:18 10° NNE 03:58:11 44° E 04:03:03 10° S visible
02 Mar 6.3 17:00:57 10° WSW 17:03:40 14° W 17:06:23 10° NW visible
03 Mar 5.3 03:16:43 10° NNE 03:21:01 26° E 03:25:17 10° SSE visible
04 Mar 6.0 02:40:33 10° NE 02:43:39 16° E 02:46:45 10° ESE visible
04 Mar 3.6 04:18:39 10° NNE 04:23:44 63° ESE 04:28:47 10° S visible
05 Mar 4.7 03:41:55 10° NNE 03:46:41 38° E 03:51:24 10° SSE visible
05 Mar 6.2 16:48:48 10° WSW 16:52:03 17° W 16:55:18 10° NW visible
06 Mar 5.6 03:05:25 10° NE 03:09:27 23° E 03:13:27 10° SE visible
07 Mar 6.1 02:29:29 10° NE 02:32:02 14° ENE 02:34:34 10° ESE visible
07 Mar 3.9 04:07:14 10° NNE 04:12:15 54° E 04:17:14 10° S visible
07 Mar 6.6 17:16:17 10° W 17:17:55 11° WNW 17:19:33 10° WNW visible
08 Mar 5.0 03:30:33 10° NNE 03:35:09 32° E 03:39:42 10° SSE visible
